Location: Kuppenheim
(48.8299°N, 8.2568°E)
Time: 14:22:26
(UTC+00:00)

Cosmos 2263 - Pass Details

Date: 20 June 2021
Orbit: 831 x 865 km, 70.9° (Epoch: 29 July)

Event Time Altitude Azimuth Distance (km) Brightness Sun altitude
Rises 00:40:56 0° 329° (NNW) 3,426 8.0 -15.9°
Reaches altitude 10° 00:43:26 10° 325° (NW) 2,481 7.2 -15.8°
Maximum altitude 00:49:00 58° 248° (WSW) 977 4.3 -15.5°
Enters shadow 00:52:45 21° 176° (S) 1,821 5.4 -15.3°
